Year,Month,Day,Hour,Minute,Value (Times are PST for temperature in C)
2014,11,15,00,00,-4.70
2014,11,15,00,01,-4.70
2014,11,15,00,02,-4.70
2014,11,15,00,03,-4.70
2014,11,15,00,04,-4.70
2014,11,15,00,05,-4.70
2014,11,15,00,06,-4.70
2014,11,15,00,07,-4.70
2014,11,15,00,08,-4.70
2014,11,15,00,09,-4.70
2014,11,15,00,10,-4.70
2014,11,15,00,11,-4.70
2014,11,15,00,12,-4.70
2014,11,15,00,13,-4.70
2014,11,15,00,14,-4.70
2014,11,15,00,15,-4.70
2014,11,15,00,16,-4.70
2014,11,15,00,17,-4.70
2014,11,15,00,18,-4.80
2014,11,15,00,19,-4.80
2014,11,15,00,20,-4.80
2014,11,15,00,21,-4.80
2014,11,15,00,22,-4.80
2014,11,15,00,23,-4.80
2014,11,15,00,24,-4.80
2014,11,15,00,25,-4.90
2014,11,15,00,26,-4.90
2014,11,15,00,27,-4.90
2014,11,15,00,28,-4.90
2014,11,15,00,29,-5.00
2014,11,15,00,30,-5.00
2014,11,15,00,31,-5.00
2014,11,15,00,32,-5.10
2014,11,15,00,33,-5.10
2014,11,15,00,34,-5.10
2014,11,15,00,35,-5.10
2014,11,15,00,36,-5.10
2014,11,15,00,37,-5.10
2014,11,15,00,38,-5.10
2014,11,15,00,39,-5.10
2014,11,15,00,40,-5.10
2014,11,15,00,41,-5.10
2014,11,15,00,42,-5.20
2014,11,15,00,43,-5.20
2014,11,15,00,44,-5.10
2014,11,15,00,45,-5.10
2014,11,15,00,46,-5.10
2014,11,15,00,47,-5.10
2014,11,15,00,48,-5.10
2014,11,15,00,49,-5.10
2014,11,15,00,50,-5.10
2014,11,15,00,51,-5.10
2014,11,15,00,52,-5.10
2014,11,15,00,53,-5.10
2014,11,15,00,54,-5.10
2014,11,15,00,55,-5.10
2014,11,15,00,56,-5.10
2014,11,15,00,57,-5.10
2014,11,15,00,58,-5.10
2014,11,15,00,59,-5.10
2014,11,15,01,00,-5.10
2014,11,15,01,01,-5.10
2014,11,15,01,02,-5.10
2014,11,15,01,03,-5.10
2014,11,15,01,04,-5.10
2014,11,15,01,05,-5.10
2014,11,15,01,06,-5.10
2014,11,15,01,07,-5.10
2014,11,15,01,08,-5.10
2014,11,15,01,09,-5.10
2014,11,15,01,10,-5.10
2014,11,15,01,11,-5.10
2014,11,15,01,12,-5.10
2014,11,15,01,13,-5.10
2014,11,15,01,14,-5.20
2014,11,15,01,15,-5.20
2014,11,15,01,16,-5.20
2014,11,15,01,17,-5.20
2014,11,15,01,18,-5.20
2014,11,15,01,19,-5.20
2014,11,15,01,20,-5.20
2014,11,15,01,21,-5.20
2014,11,15,01,22,-5.20
2014,11,15,01,23,-5.20
2014,11,15,01,24,-5.20
2014,11,15,01,25,-5.20
2014,11,15,01,26,-5.20
2014,11,15,01,27,-5.20
2014,11,15,01,28,-5.20
2014,11,15,01,29,-5.30
2014,11,15,01,30,-5.30
2014,11,15,01,31,-5.30
2014,11,15,01,32,-5.30
2014,11,15,01,33,-5.30
2014,11,15,01,34,-5.30
2014,11,15,01,35,-5.20
2014,11,15,01,36,-5.20
2014,11,15,01,37,-5.20
2014,11,15,01,38,-5.20
2014,11,15,01,39,-5.20
2014,11,15,01,40,-5.20
2014,11,15,01,41,-5.20
2014,11,15,01,42,-5.20
2014,11,15,01,43,-5.20
2014,11,15,01,44,-5.10
2014,11,15,01,45,-5.10
2014,11,15,01,46,-5.10
2014,11,15,01,47,-5.10
2014,11,15,01,48,-5.10
2014,11,15,01,49,-5.10
2014,11,15,01,50,-5.10
2014,11,15,01,51,-5.10
2014,11,15,01,52,-5.10
2014,11,15,01,53,-5.10
2014,11,15,01,54,-5.10
2014,11,15,01,55,-5.20
2014,11,15,01,56,-5.20
2014,11,15,01,57,-5.20
2014,11,15,01,58,-5.20
2014,11,15,01,59,-5.20
2014,11,15,02,00,-5.20
2014,11,15,02,01,-5.20
2014,11,15,02,02,-5.20
2014,11,15,02,03,-5.20
2014,11,15,02,04,-5.20
2014,11,15,02,05,-5.20
2014,11,15,02,06,-5.20
2014,11,15,02,07,-5.20
2014,11,15,02,08,-5.20
2014,11,15,02,09,-5.20
2014,11,15,02,10,-5.30
2014,11,15,02,11,-5.30
2014,11,15,02,12,-5.30
2014,11,15,02,13,-5.30
2014,11,15,02,14,-5.30
2014,11,15,02,15,-5.30
2014,11,15,02,16,-5.30
2014,11,15,02,17,-5.30
2014,11,15,02,18,-5.30
2014,11,15,02,19,-5.30
2014,11,15,02,20,-5.30
2014,11,15,02,21,-5.40
2014,11,15,02,22,-5.40
2014,11,15,02,23,-5.40
2014,11,15,02,24,-5.40
2014,11,15,02,25,-5.40
2014,11,15,02,26,-5.40
2014,11,15,02,27,-5.40
2014,11,15,02,28,-5.40
2014,11,15,02,29,-5.40
2014,11,15,02,30,-5.40
2014,11,15,02,31,-5.40
2014,11,15,02,32,-5.40
2014,11,15,02,33,-5.40
2014,11,15,02,34,-5.40
2014,11,15,02,35,-5.50
2014,11,15,02,36,-5.50
2014,11,15,02,37,-5.50
2014,11,15,02,38,-5.50
2014,11,15,02,39,-5.50
2014,11,15,02,40,-5.40
2014,11,15,02,41,-5.40
2014,11,15,02,42,-5.40
2014,11,15,02,43,-5.40
2014,11,15,02,44,-5.40
2014,11,15,02,45,-5.40
2014,11,15,02,46,-5.40
2014,11,15,02,47,-5.40
2014,11,15,02,48,-5.40
2014,11,15,02,49,-5.40
2014,11,15,02,50,-5.40
2014,11,15,02,51,-5.40
2014,11,15,02,52,-5.40
2014,11,15,02,53,-5.40
2014,11,15,02,54,-5.40
2014,11,15,02,55,-5.40
2014,11,15,02,56,-5.40
2014,11,15,02,57,-5.40
2014,11,15,02,58,-5.40
2014,11,15,02,59,-5.40
2014,11,15,03,00,-5.40
2014,11,15,03,01,-5.40
2014,11,15,03,02,-5.40
2014,11,15,03,03,-5.40
2014,11,15,03,04,-5.40
2014,11,15,03,05,-5.50
2014,11,15,03,06,-5.50
2014,11,15,03,07,-5.50
2014,11,15,03,08,-5.50
2014,11,15,03,09,-5.50
2014,11,15,03,10,-5.50
2014,11,15,03,11,-5.50
2014,11,15,03,12,-5.50
2014,11,15,03,13,-5.50
2014,11,15,03,14,-5.50
2014,11,15,03,15,-5.50
2014,11,15,03,16,-5.50
2014,11,15,03,17,-5.50
2014,11,15,03,18,-5.50
2014,11,15,03,19,-5.50
2014,11,15,03,20,-5.60
2014,11,15,03,21,-5.60
2014,11,15,03,22,-5.60
2014,11,15,03,23,-5.60
2014,11,15,03,24,-5.60
2014,11,15,03,25,-5.60
2014,11,15,03,26,-5.60
2014,11,15,03,27,-5.70
2014,11,15,03,28,-5.70
2014,11,15,03,29,-5.70
2014,11,15,03,30,-5.70
2014,11,15,03,31,-5.70
2014,11,15,03,32,-5.70
2014,11,15,03,33,-5.70
2014,11,15,03,34,-5.70
2014,11,15,03,35,-5.70
2014,11,15,03,36,-5.70
2014,11,15,03,37,-5.80
2014,11,15,03,38,-5.80
2014,11,15,03,39,-5.80
2014,11,15,03,40,-5.80
2014,11,15,03,41,-5.80
2014,11,15,03,42,-5.80
2014,11,15,03,43,-5.80
2014,11,15,03,44,-5.80
2014,11,15,03,45,-5.80
2014,11,15,03,46,-5.80
2014,11,15,03,47,-5.80
2014,11,15,03,48,-5.80
2014,11,15,03,49,-5.80
2014,11,15,03,50,-5.80
2014,11,15,03,51,-5.80
2014,11,15,03,52,-5.80
2014,11,15,03,53,-5.80
2014,11,15,03,54,-5.80
2014,11,15,03,55,-5.80
2014,11,15,03,56,-5.80
2014,11,15,03,57,-5.80
2014,11,15,03,58,-5.80
2014,11,15,03,59,-5.80
2014,11,15,04,00,-5.80
2014,11,15,04,01,-5.80
2014,11,15,04,02,-5.80
2014,11,15,04,03,-5.70
2014,11,15,04,04,-5.70
2014,11,15,04,05,-5.70
2014,11,15,04,06,-5.70
2014,11,15,04,07,-5.70
2014,11,15,04,08,-5.60
2014,11,15,04,09,-5.60
2014,11,15,04,10,-5.60
2014,11,15,04,11,-5.60
2014,11,15,04,12,-5.60
2014,11,15,04,13,-5.50
2014,11,15,04,14,-5.50
2014,11,15,04,15,-5.40
2014,11,15,04,16,-5.40
2014,11,15,04,17,-5.40
2014,11,15,04,18,-5.40
2014,11,15,04,19,-5.30
2014,11,15,04,20,-5.30
2014,11,15,04,21,-5.30
2014,11,15,04,22,-5.20
2014,11,15,04,23,-5.20
2014,11,15,04,24,-5.20
2014,11,15,04,25,-5.20
2014,11,15,04,26,-5.20
2014,11,15,04,27,-5.10
2014,11,15,04,28,-5.10
2014,11,15,04,29,-5.10
2014,11,15,04,30,-5.10
2014,11,15,04,31,-5.10
2014,11,15,04,32,-5.10
2014,11,15,04,33,-5.10
2014,11,15,04,34,-5.10
2014,11,15,04,35,-5.10
2014,11,15,04,36,-5.10
2014,11,15,04,37,-5.10
2014,11,15,04,38,-5.20
2014,11,15,04,39,-5.20
2014,11,15,04,40,-5.20
2014,11,15,04,41,-5.20
2014,11,15,04,42,-5.20
2014,11,15,04,43,-5.20
2014,11,15,04,44,-5.20
2014,11,15,04,45,-5.20
2014,11,15,04,46,-5.20
2014,11,15,04,47,-5.20
2014,11,15,04,48,-5.20
2014,11,15,04,49,-5.20
2014,11,15,04,50,-5.20
2014,11,15,04,51,-5.20
2014,11,15,04,52,-5.20
2014,11,15,04,53,-5.20
2014,11,15,04,54,-5.30
2014,11,15,04,55,-5.20
2014,11,15,04,56,-5.20
2014,11,15,04,57,-5.20
2014,11,15,04,58,-5.20
2014,11,15,04,59,-5.20
2014,11,15,05,00,-5.20
2014,11,15,05,01,-5.20
2014,11,15,05,02,-5.20
2014,11,15,05,03,-5.20
2014,11,15,05,04,-5.20
2014,11,15,05,05,-5.20
2014,11,15,05,06,-5.20
2014,11,15,05,07,-5.20
2014,11,15,05,08,-5.20
2014,11,15,05,09,-5.30
2014,11,15,05,10,-5.30
2014,11,15,05,11,-5.30
2014,11,15,05,12,-5.30
2014,11,15,05,13,-5.30
2014,11,15,05,14,-5.30
2014,11,15,05,15,-5.30
2014,11,15,05,16,-5.30
2014,11,15,05,17,-5.30
2014,11,15,05,18,-5.30
2014,11,15,05,19,-5.30
2014,11,15,05,20,-5.30
2014,11,15,05,21,-5.30
2014,11,15,05,22,-5.30
2014,11,15,05,23,-5.30
2014,11,15,05,24,-5.40
2014,11,15,05,25,-5.40
2014,11,15,05,26,-5.40
2014,11,15,05,27,-5.40
2014,11,15,05,28,-5.40
2014,11,15,05,29,-5.40
2014,11,15,05,30,-5.40
2014,11,15,05,31,-5.40
2014,11,15,05,32,-5.40
2014,11,15,05,33,-5.40
2014,11,15,05,34,-5.40
2014,11,15,05,35,-5.50
2014,11,15,05,36,-5.50
2014,11,15,05,37,-5.50
2014,11,15,05,38,-5.50
2014,11,15,05,39,-5.50
2014,11,15,05,40,-5.50
2014,11,15,05,41,-5.50
2014,11,15,05,42,-5.60
2014,11,15,05,43,-5.60
2014,11,15,05,44,-5.60
2014,11,15,05,45,-5.60
2014,11,15,05,46,-5.60
2014,11,15,05,47,-5.60
2014,11,15,05,48,-5.60
2014,11,15,05,49,-5.60
2014,11,15,05,50,-5.60
2014,11,15,05,51,-5.60
2014,11,15,05,52,-5.60
2014,11,15,05,53,-5.60
2014,11,15,05,54,-5.70
2014,11,15,05,55,-5.70
2014,11,15,05,56,-5.70
2014,11,15,05,57,-5.70
2014,11,15,05,58,-5.70
2014,11,15,05,59,-5.70
2014,11,15,06,00,-5.70
2014,11,15,06,01,-5.80
2014,11,15,06,02,-5.80
2014,11,15,06,03,-5.80
2014,11,15,06,04,-5.80
2014,11,15,06,05,-5.80
2014,11,15,06,06,-5.80
2014,11,15,06,07,-5.80
2014,11,15,06,08,-5.80
2014,11,15,06,09,-5.90
2014,11,15,06,10,-5.90
2014,11,15,06,11,-5.90
2014,11,15,06,12,-5.90
2014,11,15,06,13,-5.90
2014,11,15,06,14,-5.90
2014,11,15,06,15,-5.90
2014,11,15,06,16,-6.00
2014,11,15,06,17,-6.00
2014,11,15,06,18,-6.00
2014,11,15,06,19,-6.00
2014,11,15,06,20,-6.00
2014,11,15,06,21,-6.00
2014,11,15,06,22,-6.00
2014,11,15,06,23,-6.00
2014,11,15,06,24,-6.00
2014,11,15,06,25,-6.00
2014,11,15,06,26,-6.00
2014,11,15,06,27,-6.00
2014,11,15,06,28,-6.00
2014,11,15,06,29,-6.00
2014,11,15,06,30,-6.00
2014,11,15,06,31,-6.00
2014,11,15,06,32,-6.00
2014,11,15,06,33,-6.00
2014,11,15,06,34,-5.90
2014,11,15,06,35,-5.90
2014,11,15,06,36,-5.90
2014,11,15,06,37,-5.90
2014,11,15,06,38,-5.90
2014,11,15,06,39,-5.90
2014,11,15,06,40,-5.90
2014,11,15,06,41,-6.00
2014,11,15,06,42,-6.00
2014,11,15,06,43,-6.00
2014,11,15,06,44,-6.00
2014,11,15,06,45,-6.00
2014,11,15,06,46,-6.00
2014,11,15,06,47,-6.00
2014,11,15,06,48,-6.00
2014,11,15,06,49,-6.00
2014,11,15,06,50,-6.00
2014,11,15,06,51,-6.00
2014,11,15,06,52,-6.00
2014,11,15,06,53,-6.00
2014,11,15,06,54,-6.00
2014,11,15,06,55,-6.00
2014,11,15,06,56,-6.00
2014,11,15,06,57,-6.00
2014,11,15,06,58,-6.00
2014,11,15,06,59,-6.10
2014,11,15,07,00,-6.10
2014,11,15,07,01,-6.10
2014,11,15,07,02,-6.10
2014,11,15,07,03,-6.10
2014,11,15,07,04,-6.10
2014,11,15,07,05,-6.10
2014,11,15,07,06,-6.10
2014,11,15,07,07,-6.10
2014,11,15,07,08,-6.10
2014,11,15,07,09,-6.10
2014,11,15,07,10,-6.10
2014,11,15,07,11,-6.10
2014,11,15,07,12,-6.10
2014,11,15,07,13,-6.10
2014,11,15,07,14,-6.10
2014,11,15,07,15,-6.10
2014,11,15,07,16,-6.10
2014,11,15,07,17,-6.10
2014,11,15,07,18,-6.10
2014,11,15,07,19,-6.10
2014,11,15,07,20,-6.10
2014,11,15,07,21,-6.10
2014,11,15,07,22,-6.10
2014,11,15,07,23,-6.10
2014,11,15,07,24,-6.10
2014,11,15,07,25,-6.10
2014,11,15,07,26,-6.00
2014,11,15,07,27,-6.00
2014,11,15,07,28,-6.00
2014,11,15,07,29,-6.00
2014,11,15,07,30,-5.90
2014,11,15,07,31,-5.90
2014,11,15,07,32,-5.90
2014,11,15,07,33,-5.90
2014,11,15,07,34,-5.90
2014,11,15,07,35,-5.90
2014,11,15,07,36,-5.90
2014,11,15,07,37,-5.90
2014,11,15,07,38,-5.90
2014,11,15,07,39,-5.90
2014,11,15,07,40,-5.90
2014,11,15,07,41,-5.80
2014,11,15,07,42,-5.80
2014,11,15,07,43,-5.80
2014,11,15,07,44,-5.80
2014,11,15,07,45,-5.80
2014,11,15,07,46,-5.80
2014,11,15,07,47,-5.80
2014,11,15,07,48,-5.80
2014,11,15,07,49,-5.80
2014,11,15,07,50,-5.90
2014,11,15,07,51,-5.90
2014,11,15,07,52,-5.90
2014,11,15,07,53,-5.90
2014,11,15,07,54,-5.90
2014,11,15,07,55,-5.90
2014,11,15,07,56,-5.80
2014,11,15,07,57,-5.80
2014,11,15,07,58,-5.80
2014,11,15,07,59,-5.80
2014,11,15,08,00,-5.80
2014,11,15,08,01,-5.80
2014,11,15,08,02,-5.80
2014,11,15,08,03,-5.80
2014,11,15,08,04,-5.70
2014,11,15,08,05,-5.70
2014,11,15,08,06,-5.70
2014,11,15,08,07,-5.60
2014,11,15,08,08,-5.60
2014,11,15,08,09,-5.60
2014,11,15,08,10,-5.50
2014,11,15,08,11,-5.50
2014,11,15,08,12,-5.40
2014,11,15,08,13,-5.40
2014,11,15,08,14,-5.40
2014,11,15,08,15,-5.30
2014,11,15,08,16,-5.30
2014,11,15,08,17,-5.20
2014,11,15,08,18,-5.20
2014,11,15,08,19,-5.20
2014,11,15,08,20,-5.10
2014,11,15,08,21,-5.10
2014,11,15,08,22,-5.00
2014,11,15,08,23,-5.00
2014,11,15,08,24,-4.90
2014,11,15,08,25,-4.90
2014,11,15,08,26,-4.80
2014,11,15,08,27,-4.80
2014,11,15,08,28,-4.70
2014,11,15,08,29,-4.70
2014,11,15,08,30,-4.60
2014,11,15,08,31,-4.60
2014,11,15,08,32,-4.60
2014,11,15,08,33,-4.50
2014,11,15,08,34,-4.50
2014,11,15,08,35,-4.40
2014,11,15,08,36,-4.40
2014,11,15,08,37,-4.30
2014,11,15,08,38,-4.30
2014,11,15,08,39,-4.30
2014,11,15,08,40,-4.20
2014,11,15,08,41,-4.20
2014,11,15,08,42,-4.20
2014,11,15,08,43,-4.10
2014,11,15,08,44,-4.10
2014,11,15,08,45,-4.10
2014,11,15,08,46,-4.00
2014,11,15,08,47,-4.00
2014,11,15,08,48,-3.90
2014,11,15,08,49,-3.90
2014,11,15,08,50,-3.80
2014,11,15,08,51,-3.80
2014,11,15,08,52,-3.70
2014,11,15,08,53,-3.70
2014,11,15,08,54,-3.70
2014,11,15,08,55,-3.60
2014,11,15,08,56,-3.60
2014,11,15,08,57,-3.50
2014,11,15,08,58,-3.50
2014,11,15,08,59,-3.40
2014,11,15,09,00,-3.40
2014,11,15,09,01,-3.30
2014,11,15,09,02,-3.20
2014,11,15,09,03,-3.10
2014,11,15,09,04,-3.00
2014,11,15,09,05,-3.00
2014,11,15,09,06,-2.90
2014,11,15,09,07,-2.80
2014,11,15,09,08,-2.70
2014,11,15,09,09,-2.70
2014,11,15,09,10,-2.70
2014,11,15,09,11,-2.70
2014,11,15,09,12,-2.60
2014,11,15,09,13,-2.60
2014,11,15,09,14,-2.60
2014,11,15,09,15,-2.60
2014,11,15,09,16,-2.60
2014,11,15,09,17,-2.60
2014,11,15,09,18,-2.60
2014,11,15,09,19,-2.50
2014,11,15,09,20,-2.50
2014,11,15,09,21,-2.50
2014,11,15,09,22,-2.50
2014,11,15,09,23,-2.40
2014,11,15,09,24,-2.40
2014,11,15,09,25,-2.40
2014,11,15,09,26,-2.40
2014,11,15,09,27,-2.30
2014,11,15,09,28,-2.30
2014,11,15,09,29,-2.30
2014,11,15,09,30,-2.20
2014,11,15,09,31,-2.20
2014,11,15,09,32,-2.20
2014,11,15,09,33,-2.20
2014,11,15,09,34,-2.20
2014,11,15,09,35,-2.20
2014,11,15,09,36,-2.10
2014,11,15,09,37,-2.10
2014,11,15,09,38,-2.10
2014,11,15,09,39,-2.10
2014,11,15,09,40,-2.10
2014,11,15,09,41,-2.10
2014,11,15,09,42,-2.10
2014,11,15,09,43,-2.10
2014,11,15,09,44,-2.00
2014,11,15,09,45,-2.00
2014,11,15,09,46,-2.00
2014,11,15,09,47,-2.00
2014,11,15,09,48,-2.00
2014,11,15,09,49,-1.90
2014,11,15,09,50,-1.90
2014,11,15,09,51,-1.90
2014,11,15,09,52,-1.90
2014,11,15,09,53,-1.90
2014,11,15,09,54,-1.80
2014,11,15,09,55,-1.80
2014,11,15,09,56,-1.80
2014,11,15,09,57,-1.70
2014,11,15,09,58,-1.60
2014,11,15,09,59,-1.60
2014,11,15,10,00,-1.50
2014,11,15,10,01,-1.50
2014,11,15,10,02,-1.40
2014,11,15,10,03,-1.30
2014,11,15,10,04,-1.30
2014,11,15,10,05,-1.20
2014,11,15,10,06,-1.20
2014,11,15,10,07,-1.10
2014,11,15,10,08,-1.10
2014,11,15,10,09,-1.00
2014,11,15,10,10,-0.90
2014,11,15,10,11,-0.90
2014,11,15,10,12,-0.80
2014,11,15,10,13,-0.80
2014,11,15,10,14,-0.70
2014,11,15,10,15,-0.70
2014,11,15,10,16,-0.60
2014,11,15,10,17,-0.60
2014,11,15,10,18,-0.50
2014,11,15,10,19,-0.40
2014,11,15,10,20,-0.30
2014,11,15,10,21,-0.30
2014,11,15,10,22,-0.20
2014,11,15,10,23,-0.20
2014,11,15,10,24,-0.10
2014,11,15,10,25,0.00
2014,11,15,10,26,0.10
2014,11,15,10,27,0.20
2014,11,15,10,28,0.20
2014,11,15,10,29,0.30
2014,11,15,10,30,0.40
2014,11,15,10,31,0.50
2014,11,15,10,32,0.60
2014,11,15,10,33,0.70
2014,11,15,10,34,0.80
2014,11,15,10,35,0.80
2014,11,15,10,36,0.90
2014,11,15,10,37,1.00
2014,11,15,10,38,1.10
2014,11,15,10,39,1.20
2014,11,15,10,40,1.30
2014,11,15,10,41,1.40
2014,11,15,10,42,1.50
2014,11,15,10,43,1.60
2014,11,15,10,44,1.70
2014,11,15,10,45,1.70
2014,11,15,10,46,1.80
2014,11,15,10,47,1.90
2014,11,15,10,48,2.00
2014,11,15,10,49,2.00
2014,11,15,10,50,2.10
2014,11,15,10,51,2.10
2014,11,15,10,52,2.20
2014,11,15,10,53,2.30
2014,11,15,10,54,2.30
2014,11,15,10,55,2.40
2014,11,15,10,56,2.40
2014,11,15,10,57,2.50
2014,11,15,10,58,2.60
2014,11,15,10,59,2.60
2014,11,15,11,00,2.70
2014,11,15,11,01,2.70
2014,11,15,11,02,2.80
2014,11,15,11,03,2.80
2014,11,15,11,04,2.90
2014,11,15,11,05,3.00
2014,11,15,11,06,3.00
2014,11,15,11,07,3.10
2014,11,15,11,08,3.20
2014,11,15,11,09,3.20
2014,11,15,11,10,3.30
2014,11,15,11,11,3.40
2014,11,15,11,12,3.40
2014,11,15,11,13,3.50
2014,11,15,11,14,3.50
2014,11,15,11,15,3.60
2014,11,15,11,16,3.60
2014,11,15,11,17,3.70
2014,11,15,11,18,3.70
2014,11,15,11,19,3.80
2014,11,15,11,20,3.80
2014,11,15,11,21,3.90
2014,11,15,11,22,3.90
2014,11,15,11,23,4.00
2014,11,15,11,24,4.00
2014,11,15,11,25,4.10
2014,11,15,11,26,4.10
2014,11,15,11,27,4.20
2014,11,15,11,28,4.20
2014,11,15,11,29,4.30
2014,11,15,11,30,4.30
2014,11,15,11,31,4.30
2014,11,15,11,32,4.40
2014,11,15,11,33,4.40
2014,11,15,11,34,4.50
2014,11,15,11,35,4.50
2014,11,15,11,36,4.50
2014,11,15,11,37,4.60
2014,11,15,11,38,4.60
2014,11,15,11,39,4.60
2014,11,15,11,40,4.60
2014,11,15,11,41,4.60
2014,11,15,11,42,4.50
2014,11,15,11,43,4.50
2014,11,15,11,44,4.50
2014,11,15,11,45,4.50
2014,11,15,11,46,4.60
2014,11,15,11,47,4.60
2014,11,15,11,48,4.60
2014,11,15,11,49,4.60
2014,11,15,11,50,4.60
2014,11,15,11,51,4.60
2014,11,15,11,52,4.60
2014,11,15,11,53,4.50
2014,11,15,11,54,4.50
2014,11,15,11,55,4.50
2014,11,15,11,56,4.50
2014,11,15,11,57,4.50
2014,11,15,11,58,4.50
2014,11,15,11,59,4.50
2014,11,15,12,00,4.50
2014,11,15,12,01,4.50
2014,11,15,12,02,4.50
2014,11,15,12,03,4.50
2014,11,15,12,04,4.50
2014,11,15,12,05,4.50
2014,11,15,12,06,4.50
2014,11,15,12,07,4.60
2014,11,15,12,08,4.60
2014,11,15,12,09,4.60
2014,11,15,12,10,4.60
2014,11,15,12,11,4.60
2014,11,15,12,12,4.60
2014,11,15,12,13,4.60
2014,11,15,12,14,4.60
2014,11,15,12,15,4.60
2014,11,15,12,16,4.60
2014,11,15,12,17,4.60
2014,11,15,12,18,4.60
2014,11,15,12,19,4.70
2014,11,15,12,20,4.70
2014,11,15,12,21,4.80
2014,11,15,12,22,4.80
2014,11,15,12,23,4.80
2014,11,15,12,24,4.80
2014,11,15,12,25,4.90
2014,11,15,12,26,4.90
2014,11,15,12,27,4.90
2014,11,15,12,28,4.90
2014,11,15,12,29,5.00
2014,11,15,12,30,5.00
2014,11,15,12,31,5.00
2014,11,15,12,32,5.00
2014,11,15,12,33,5.00
2014,11,15,12,34,5.00
2014,11,15,12,35,5.00
2014,11,15,12,36,5.00
2014,11,15,12,37,5.00
2014,11,15,12,38,5.00
2014,11,15,12,39,5.00
2014,11,15,12,40,5.00
2014,11,15,12,41,5.00
2014,11,15,12,42,4.90
2014,11,15,12,43,4.90
2014,11,15,12,44,4.90
2014,11,15,12,45,4.90
2014,11,15,12,46,4.90
2014,11,15,12,47,4.80
2014,11,15,12,48,4.80
2014,11,15,12,49,4.80
2014,11,15,12,50,4.80
2014,11,15,12,51,4.80
2014,11,15,12,52,4.80
2014,11,15,12,53,4.80
2014,11,15,12,54,4.80
2014,11,15,12,55,4.80
2014,11,15,12,56,4.80
2014,11,15,12,57,4.80
2014,11,15,12,58,4.80
2014,11,15,12,59,4.80
2014,11,15,13,00,4.70
2014,11,15,13,01,4.70
2014,11,15,13,02,4.80
2014,11,15,13,03,4.80
2014,11,15,13,04,4.80
2014,11,15,13,05,4.80
2014,11,15,13,06,4.80
2014,11,15,13,07,4.70
2014,11,15,13,08,4.70
2014,11,15,13,09,4.70
2014,11,15,13,10,4.70
2014,11,15,13,11,4.70
2014,11,15,13,12,4.70
2014,11,15,13,13,4.70
2014,11,15,13,14,4.70
2014,11,15,13,15,4.70
2014,11,15,13,16,4.70
2014,11,15,13,17,4.70
2014,11,15,13,18,4.70
2014,11,15,13,19,4.70
2014,11,15,13,20,4.70
2014,11,15,13,21,4.70
2014,11,15,13,22,4.70
2014,11,15,13,23,4.80
2014,11,15,13,24,4.80
2014,11,15,13,25,4.80
2014,11,15,13,26,4.80
2014,11,15,13,27,4.80
2014,11,15,13,28,4.80
2014,11,15,13,29,4.80
2014,11,15,13,30,4.80
2014,11,15,13,31,4.80
2014,11,15,13,32,4.80
2014,11,15,13,33,4.80
2014,11,15,13,34,4.90
2014,11,15,13,35,4.90
2014,11,15,13,36,4.90
2014,11,15,13,37,4.90
2014,11,15,13,38,5.00
2014,11,15,13,39,5.00
2014,11,15,13,40,5.00
2014,11,15,13,41,5.00
2014,11,15,13,42,5.10
2014,11,15,13,43,5.10
2014,11,15,13,44,5.10
2014,11,15,13,45,5.00
2014,11,15,13,46,5.00
2014,11,15,13,47,5.00
2014,11,15,13,48,5.00
2014,11,15,13,49,5.00
2014,11,15,13,50,5.00
2014,11,15,13,51,5.00
2014,11,15,13,52,5.00
2014,11,15,13,53,5.00
2014,11,15,13,54,5.00
2014,11,15,13,55,5.00
2014,11,15,13,56,5.00
2014,11,15,13,57,5.10
2014,11,15,13,58,5.10
2014,11,15,13,59,5.10
2014,11,15,14,00,5.10
2014,11,15,14,01,5.00
2014,11,15,14,02,5.00
2014,11,15,14,03,5.00
2014,11,15,14,04,5.00
2014,11,15,14,05,5.00
2014,11,15,14,06,4.90
2014,11,15,14,07,4.90
2014,11,15,14,08,5.00
2014,11,15,14,09,5.00
2014,11,15,14,10,5.00
2014,11,15,14,11,5.00
2014,11,15,14,12,5.10
2014,11,15,14,13,5.10
2014,11,15,14,14,5.10
2014,11,15,14,15,5.20
2014,11,15,14,16,5.20
2014,11,15,14,17,5.20
2014,11,15,14,18,5.30
2014,11,15,14,19,5.30
2014,11,15,14,20,5.30
2014,11,15,14,21,5.30
2014,11,15,14,22,5.40
2014,11,15,14,23,5.40
2014,11,15,14,24,5.40
2014,11,15,14,25,5.40
2014,11,15,14,26,5.40
2014,11,15,14,27,5.40
2014,11,15,14,28,5.40
2014,11,15,14,29,5.50
2014,11,15,14,30,5.50
2014,11,15,14,31,5.50
2014,11,15,14,32,5.50
2014,11,15,14,33,5.60
2014,11,15,14,34,5.60
2014,11,15,14,35,5.60
2014,11,15,14,36,5.60
2014,11,15,14,37,5.60
2014,11,15,14,38,5.60
2014,11,15,14,39,5.60
2014,11,15,14,40,5.60
2014,11,15,14,41,5.60
2014,11,15,14,42,5.60
2014,11,15,14,43,5.60
2014,11,15,14,44,5.60
2014,11,15,14,45,5.60
2014,11,15,14,46,5.60
2014,11,15,14,47,5.60
2014,11,15,14,48,5.60
2014,11,15,14,49,5.60
2014,11,15,14,50,5.60
2014,11,15,14,51,5.60
2014,11,15,14,52,5.60
2014,11,15,14,53,5.60
2014,11,15,14,54,5.70
2014,11,15,14,55,5.60
2014,11,15,14,56,5.60
2014,11,15,14,57,5.60
2014,11,15,14,58,5.60
2014,11,15,14,59,5.60
2014,11,15,15,00,5.60
2014,11,15,15,01,5.60
2014,11,15,15,02,5.60
2014,11,15,15,03,5.60
2014,11,15,15,04,5.60
2014,11,15,15,05,5.60
2014,11,15,15,06,5.60
2014,11,15,15,07,5.60
2014,11,15,15,08,5.60
2014,11,15,15,09,5.60
2014,11,15,15,10,5.60
2014,11,15,15,11,5.60
2014,11,15,15,12,5.60
2014,11,15,15,13,5.60
2014,11,15,15,14,5.60
2014,11,15,15,15,5.60
2014,11,15,15,16,5.60
2014,11,15,15,17,5.60
2014,11,15,15,18,5.60
2014,11,15,15,19,5.60
2014,11,15,15,20,5.60
2014,11,15,15,21,5.60
2014,11,15,15,22,5.60
2014,11,15,15,23,5.60
2014,11,15,15,24,5.60
2014,11,15,15,25,5.60
2014,11,15,15,26,5.60
2014,11,15,15,27,5.60
2014,11,15,15,28,5.60
2014,11,15,15,29,5.60
2014,11,15,15,30,5.70
2014,11,15,15,31,5.70
2014,11,15,15,32,5.70
2014,11,15,15,33,5.70
2014,11,15,15,34,5.80
2014,11,15,15,35,5.80
2014,11,15,15,36,5.80
2014,11,15,15,37,5.80
2014,11,15,15,38,5.80
2014,11,15,15,39,5.80
2014,11,15,15,40,5.80
2014,11,15,15,41,5.80
2014,11,15,15,42,5.90
2014,11,15,15,43,5.90
2014,11,15,15,44,5.90
2014,11,15,15,45,5.90
2014,11,15,15,46,5.90
2014,11,15,15,47,5.90
2014,11,15,15,48,5.90
2014,11,15,15,49,5.90
2014,11,15,15,50,5.90
2014,11,15,15,51,5.90
2014,11,15,15,52,5.90
2014,11,15,15,53,5.90
2014,11,15,15,54,5.90
2014,11,15,15,55,5.90
2014,11,15,15,56,5.90
2014,11,15,15,57,5.90
2014,11,15,15,58,5.90
2014,11,15,15,59,5.90
2014,11,15,16,00,5.90
2014,11,15,16,01,5.80
2014,11,15,16,02,5.80
2014,11,15,16,03,5.80
2014,11,15,16,04,5.80
2014,11,15,16,05,5.80
2014,11,15,16,06,5.80
2014,11,15,16,07,5.80
2014,11,15,16,08,5.70
2014,11,15,16,09,5.70
2014,11,15,16,10,5.70
2014,11,15,16,11,5.70
2014,11,15,16,12,5.60
2014,11,15,16,13,5.60
2014,11,15,16,14,5.50
2014,11,15,16,15,5.40
2014,11,15,16,16,5.40
2014,11,15,16,17,5.30
2014,11,15,16,18,5.20
2014,11,15,16,19,5.10
2014,11,15,16,20,5.00
2014,11,15,16,21,4.90
2014,11,15,16,22,4.80
2014,11,15,16,23,4.70
2014,11,15,16,24,4.60
2014,11,15,16,25,4.50
2014,11,15,16,26,4.50
2014,11,15,16,27,4.40
2014,11,15,16,28,4.30
2014,11,15,16,29,4.20
2014,11,15,16,30,4.10
2014,11,15,16,31,4.10
2014,11,15,16,32,4.00
2014,11,15,16,33,3.90
2014,11,15,16,34,3.80
2014,11,15,16,35,3.80
2014,11,15,16,36,3.70
2014,11,15,16,37,3.70
2014,11,15,16,38,3.60
2014,11,15,16,39,3.50
2014,11,15,16,40,3.50
2014,11,15,16,41,3.40
2014,11,15,16,42,3.30
2014,11,15,16,43,3.20
2014,11,15,16,44,3.20
2014,11,15,16,45,3.10
2014,11,15,16,46,3.10
2014,11,15,16,47,3.00
2014,11,15,16,48,2.90
2014,11,15,16,49,2.90
2014,11,15,16,50,2.80
2014,11,15,16,51,2.80
2014,11,15,16,52,2.70
2014,11,15,16,53,2.70
2014,11,15,16,54,2.70
2014,11,15,16,55,2.60
2014,11,15,16,56,2.60
2014,11,15,16,57,2.50
2014,11,15,16,58,2.50
2014,11,15,16,59,2.40
2014,11,15,17,00,2.30
2014,11,15,17,01,2.30
2014,11,15,17,02,2.20
2014,11,15,17,03,2.20
2014,11,15,17,04,2.10
2014,11,15,17,05,2.00
2014,11,15,17,06,2.00
2014,11,15,17,07,1.80
2014,11,15,17,08,1.70
2014,11,15,17,09,1.60
2014,11,15,17,10,1.50
2014,11,15,17,11,1.30
2014,11,15,17,12,1.20
2014,11,15,17,13,1.10
2014,11,15,17,14,1.00
2014,11,15,17,15,0.90
2014,11,15,17,16,0.80
2014,11,15,17,17,0.80
2014,11,15,17,18,0.70
2014,11,15,17,19,0.70
2014,11,15,17,20,0.70
2014,11,15,17,21,0.70
2014,11,15,17,22,0.70
2014,11,15,17,23,0.70
2014,11,15,17,24,0.70
2014,11,15,17,25,0.70
2014,11,15,17,26,0.70
2014,11,15,17,27,0.70
2014,11,15,17,28,0.60
2014,11,15,17,29,0.60
2014,11,15,17,30,0.60
2014,11,15,17,31,0.60
2014,11,15,17,32,0.60
2014,11,15,17,33,0.60
2014,11,15,17,34,0.60
2014,11,15,17,35,0.50
2014,11,15,17,36,0.50
2014,11,15,17,37,0.40
2014,11,15,17,38,0.40